Information on these data can be found in provided Readme document
Contact Info: Zachary Fasnacht (zachary.fasnacht@ssaihq.com); Nickolay Krotkov (nickolay.a.krotkov@nasa.gov); Lok Lamsal (lok.lamsal@nasa.gov)

FillValue: -999.
ScaleFactor: 1e15
Units: molecules/cm^2

Date(yyyy-mm-dd),City,Country,LonCenter,LatCenter,BoundingCoordinates,Median,Q1,Q3,Mean,Baseline_Median,Baseline_Q1,Baseline_Q3,Baseline_Mean,NumGoodSamples,NumTotalSamples
2015-01-01,Taipei,Taiwan,121.5167,25.0333,[121.0167 24.5333 122.0167 25.5333],3.56,1.509,8.116,5.345,3.875,2.366,6.888,4.906,90.0,558.0
2015-01-02,Taipei,Taiwan,121.5167,25.0333,[121.0167 24.5333 122.0167 25.5333],3.56,1.518,8.18,5.432,3.871,2.366,6.962,4.947,102.0,557.0
2015-01-03,Taipei,Taiwan,121.5167,25.0333,[121.0167 24.5333 122.0167 25.5333],3.56,1.518,8.18,5.432,3.736,1.871,6.78,4.788,102.0,560.0
2015-01-04,Taipei,Taiwan,121.5167,25.0333,[121.0167 24.5333 122.0167 25.5333],3.56,1.518,8.18,5.432,3.719,1.823,6.534,4.759,102.0,543.0
2015-01-05,Taipei,Taiwan,121.5167,25.0333,[121.0167 24.5333 122.0167 25.5333],3.56,1.518,8.18,5.432,3.729,1.856,6.541,4.75,102.0,557.0
2015-01-06,Taipei,Taiwan,121.5167,25.0333,[121.0167 24.5333 122.0167 25.5333],3.56,1.518,8.18,5.432,3.662,1.846,6.488,4.718,102.0,541.0
2015-01-07,Taipei,Taiwan,121.5167,25.0333,[121.0167 24.5333 122.0167 25.5333],5.299,2.458,9.15,6.556,4.046,2.311,5.942,4.672,74.0,562.0
2015-01-08,Taipei,Taiwan,121.5167,25.0333,[121.0167 24.5333 122.0167 25.5333],5.787,2.458,9.15,6.367,4.144,2.334,5.867,4.649,46.0,552.0
2015-01-09,Taipei,Taiwan,121.5167,25.0333,[121.0167 24.5333 122.0167 25.5333],5.141,2.309,9.15,6.031,3.999,2.323,5.871,4.574,61.0,565.0
2015-01-10,Taipei,Taiwan,121.5167,25.0333,[121.0167 24.5333 122.0167 25.5333],5.835,2.458,9.816,6.573,4.423,2.533,6.746,5.28,50.0,536.0
2015-01-11,Taipei,Taiwan,121.5167,25.0333,[121.0167 24.5333 122.0167 25.5333],5.299,2.309,9.15,6.336,4.051,2.298,6.079,4.964,53.0,525.0
2015-01-12,Taipei,Taiwan,121.5167,25.0333,[121.0167 24.5333 122.0167 25.5333],3.817,1.778,6.661,4.336,3.686,2.313,5.401,4.513,35.0,539.0
2015-01-13,Taipei,Taiwan,121.5167,25.0333,[121.0167 24.5333 122.0167 25.5333],4.43,1.778,5.504,4.379,3.788,2.358,5.323,4.553,40.0,515.0
2015-01-14,Taipei,Taiwan,121.5167,25.0333,[121.0167 24.5333 122.0167 25.5333],4.43,2.09,6.661,4.635,3.782,2.409,5.491,4.592,38.0,520.0
2015-01-15,Taipei,Taiwan,121.5167,25.0333,[121.0167 24.5333 122.0167 25.5333],2.667,1.931,5.299,3.87,3.327,2.297,5.228,4.333,54.0,519.0
2015-01-16,Taipei,Taiwan,121.5167,25.0333,[121.0167 24.5333 122.0167 25.5333],3.926,1.931,5.638,4.313,3.833,2.386,6.085,4.651,76.0,540.0
2015-01-17,Taipei,Taiwan,121.5167,25.0333,[121.0167 24.5333 122.0167 25.5333],3.66,2.09,5.638,4.553,3.855,2.423,5.951,4.665,83.0,527.0
2015-01-18,Taipei,Taiwan,121.5167,25.0333,[121.0167 24.5333 122.0167 25.5333],4.1,2.202,5.638,4.604,4.001,2.542,6.064,4.776,89.0,531.0
2015-01-19,Taipei,Taiwan,121.5167,25.0333,[121.0167 24.5333 122.0167 25.5333],4.1,2.202,5.638,4.604,4.001,2.545,6.165,4.831,89.0,535.0
2015-01-20,Taipei,Taiwan,121.5167,25.0333,[121.0167 24.5333 122.0167 25.5333],4.1,2.202,5.638,4.604,3.809,2.424,5.731,4.582,89.0,516.0
2015-01-21,Taipei,Taiwan,121.5167,25.0333,[121.0167 24.5333 122.0167 25.5333],4.1,2.202,5.638,4.604,3.761,2.373,5.674,4.529,89.0,529.0
2015-01-22,Taipei,Taiwan,121.5167,25.0333,[121.0167 24.5333 122.0167 25.5333],4.1,2.202,5.638,4.604,4.059,2.589,5.568,4.612,89.0,509.0
2015-01-23,Taipei,Taiwan,121.5167,25.0333,[121.0167 24.5333 122.0167 25.5333],4.1,2.168,5.638,4.662,3.933,2.448,5.406,4.488,86.0,530.0
2015-01-24,Taipei,Taiwan,121.5167,25.0333,[121.0167 24.5333 122.0167 25.5333],4.221,2.325,5.638,4.768,4.104,2.664,5.767,5.026,71.0,520.0
2015-01-25,Taipei,Taiwan,121.5167,25.0333,[121.0167 24.5333 122.0167 25.5333],4.221,2.325,5.638,4.765,3.825,2.492,5.28,4.631,73.0,561.0
2015-01-26,Taipei,Taiwan,121.5167,25.0333,[121.0167 24.5333 122.0167 25.5333],4.221,2.325,5.638,4.836,3.88,2.592,5.038,4.576,70.0,557.0
2015-01-27,Taipei,Taiwan,121.5167,25.0333,[121.0167 24.5333 122.0167 25.5333],4.221,2.325,5.638,4.836,3.868,2.581,5.079,4.65,70.0,548.0
2015-01-28,Taipei,Taiwan,121.5167,25.0333,[121.0167 24.5333 122.0167 25.5333],3.926,2.325,5.638,4.834,3.791,2.583,5.074,4.648,65.0,563.0
2015-01-29,Taipei,Taiwan,121.5167,25.0333,[121.0167 24.5333 122.0167 25.5333],3.926,2.325,5.638,4.834,3.787,2.581,5.071,4.613,65.0,540.0
2015-01-30,Taipei,Taiwan,121.5167,25.0333,[121.0167 24.5333 122.0167 25.5333],5.054,2.89,8.708,5.903,3.919,2.643,5.706,4.73,49.0,546.0
2015-01-31,Taipei,Taiwan,121.5167,25.0333,[121.0167 24.5333 122.0167 25.5333],4.221,2.89,6.87,5.735,3.448,2.328,5.147,4.358,27.0,540.0
2015-02-01,Taipei,Taiwan,121.5167,25.0333,[121.0167 24.5333 122.0167 25.5333],5.079,4.647,5.549,5.404,3.343,2.156,4.994,4.121,8.0,562.0
2015-02-02,Taipei,Taiwan,121.5167,25.0333,[121.0167 24.5333 122.0167 25.5333],5.174,5.174,5.174,4.603,3.311,2.113,4.982,4.095,2.0,547.0
2015-02-03,Taipei,Taiwan,121.5167,25.0333,[121.0167 24.5333 122.0167 25.5333],5.174,5.174,5.174,4.603,3.238,2.252,4.858,4.018,2.0,548.0
2015-02-04,Taipei,Taiwan,121.5167,25.0333,[121.0167 24.5333 122.0167 25.5333],5.174,5.174,5.174,4.603,3.311,2.343,5.098,4.194,2.0,555.0
2015-02-05,Taipei,Taiwan,121.5167,25.0333,[121.0167 24.5333 122.0167 25.5333],2.895,1.561,4.126,3.103,3.358,2.326,5.076,4.139,18.0,538.0
2015-02-06,Taipei,Taiwan,121.5167,25.0333,[121.0167 24.5333 122.0167 25.5333],2.895,1.561,4.126,3.103,3.438,2.339,5.131,4.237,18.0,553.0
2015-02-07,Taipei,Taiwan,121.5167,25.0333,[121.0167 24.5333 122.0167 25.5333],5.097,3.208,6.552,5.005,3.831,2.618,5.525,4.472,41.0,534.0
2015-02-08,Taipei,Taiwan,121.5167,25.0333,[121.0167 24.5333 122.0167 25.5333],5.097,3.208,6.552,5.005,4.085,2.847,5.5,4.489,41.0,555.0
2015-02-09,Taipei,Taiwan,121.5167,25.0333,[121.0167 24.5333 122.0167 25.5333],5.097,3.365,6.552,5.072,4.129,2.9,5.544,4.528,49.0,545.0
2015-02-10,Taipei,Taiwan,121.5167,25.0333,[121.0167 24.5333 122.0167 25.5333],5.097,3.365,6.881,5.016,4.28,2.959,5.895,4.731,68.0,559.0
2015-02-11,Taipei,Taiwan,121.5167,25.0333,[121.0167 24.5333 122.0167 25.5333],5.097,3.365,6.881,5.016,4.265,3.016,6.126,4.773,68.0,528.0
2015-02-12,Taipei,Taiwan,121.5167,25.0333,[121.0167 24.5333 122.0167 25.5333],5.097,3.365,6.642,5.012,4.349,3.139,6.108,4.84,72.0,517.0
2015-02-13,Taipei,Taiwan,121.5167,25.0333,[121.0167 24.5333 122.0167 25.5333],5.097,3.365,6.642,5.012,4.372,3.147,6.166,4.868,72.0,531.0
2015-02-14,Taipei,Taiwan,121.5167,25.0333,[121.0167 24.5333 122.0167 25.5333],5.565,3.585,7.105,5.351,4.614,3.256,6.328,5.015,83.0,507.0
2015-02-15,Taipei,Taiwan,121.5167,25.0333,[121.0167 24.5333 122.0167 25.5333],5.565,3.585,7.105,5.351,4.68,3.34,6.367,5.078,83.0,517.0
2015-02-16,Taipei,Taiwan,121.5167,25.0333,[121.0167 24.5333 122.0167 25.5333],5.565,3.585,7.105,5.351,4.749,3.438,6.554,5.184,83.0,516.0
2015-02-17,Taipei,Taiwan,121.5167,25.0333,[121.0167 24.5333 122.0167 25.5333],5.707,3.585,7.348,5.502,4.804,3.44,6.634,5.231,97.0,540.0
2015-02-18,Taipei,Taiwan,121.5167,25.0333,[121.0167 24.5333 122.0167 25.5333],5.565,3.585,7.392,5.532,5.027,3.497,6.885,5.43,101.0,530.0
2015-02-19,Taipei,Taiwan,121.5167,25.0333,[121.0167 24.5333 122.0167 25.5333],5.707,3.585,7.392,5.526,5.078,3.497,6.887,5.429,103.0,530.0
2015-02-20,Taipei,Taiwan,121.5167,25.0333,[121.0167 24.5333 122.0167 25.5333],5.753,4.084,7.793,5.922,5.063,3.662,7.047,5.558,87.0,536.0
2015-02-21,Taipei,Taiwan,121.5167,25.0333,[121.0167 24.5333 122.0167 25.5333],5.721,4.042,7.793,5.783,5.039,3.649,7.021,5.487,93.0,518.0
2015-02-22,Taipei,Taiwan,121.5167,25.0333,[121.0167 24.5333 122.0167 25.5333],5.707,3.954,8.133,5.846,4.82,3.194,6.872,5.342,70.0,531.0
2015-02-23,Taipei,Taiwan,121.5167,25.0333,[121.0167 24.5333 122.0167 25.5333],5.707,3.954,8.133,5.846,4.798,3.305,6.978,5.214,70.0,512.0
2015-02-24,Taipei,Taiwan,121.5167,25.0333,[121.0167 24.5333 122.0167 25.5333],5.842,4.042,8.133,6.01,4.425,3.019,6.309,4.911,60.0,530.0
2015-02-25,Taipei,Taiwan,121.5167,25.0333,[121.0167 24.5333 122.0167 25.5333],6.072,4.417,8.599,6.399,4.286,2.826,6.005,4.732,41.0,520.0
2015-02-26,Taipei,Taiwan,121.5167,25.0333,[121.0167 24.5333 122.0167 25.5333],6.072,4.417,8.599,6.399,4.533,3.002,5.965,4.815,41.0,560.0
2015-02-27,Taipei,Taiwan,121.5167,25.0333,[121.0167 24.5333 122.0167 25.5333],6.296,4.417,8.599,6.446,4.281,3.064,5.889,4.678,37.0,560.0
2015-02-28,Taipei,Taiwan,121.5167,25.0333,[121.0167 24.5333 122.0167 25.5333],6.296,4.417,8.599,6.446,4.289,3.063,5.859,4.642,37.0,550.0
2015-03-01,Taipei,Taiwan,121.5167,25.0333,[121.0167 24.5333 122.0167 25.5333],4.442,3.098,9.143,5.881,3.865,2.724,5.686,4.371,26.0,562.0
2015-03-02,Taipei,Taiwan,121.5167,25.0333,[121.0167 24.5333 122.0167 25.5333],4.042,3.098,7.791,5.579,3.817,2.723,5.572,4.365,30.0,538.0
2015-03-03,Taipei,Taiwan,121.5167,25.0333,[121.0167 24.5333 122.0167 25.5333],4.042,3.098,7.791,5.579,3.674,2.617,5.179,4.09,30.0,545.0
2015-03-04,Taipei,Taiwan,121.5167,25.0333,[121.0167 24.5333 122.0167 25.5333],4.042,3.098,5.492,4.333,3.664,2.603,4.98,3.978,16.0,542.0
2015-03-05,Taipei,Taiwan,121.5167,25.0333,[121.0167 24.5333 122.0167 25.5333],3.098,2.45,4.042,3.254,3.817,2.541,5.279,4.269,12.0,563.0
2015-03-06,Taipei,Taiwan,121.5167,25.0333,[121.0167 24.5333 122.0167 25.5333],3.836,2.465,6.691,4.959,3.914,2.509,5.718,4.661,29.0,551.0
2015-03-07,Taipei,Taiwan,121.5167,25.0333,[121.0167 24.5333 122.0167 25.5333],4.468,2.648,7.923,5.721,3.976,2.571,5.968,4.819,52.0,549.0
2015-03-08,Taipei,Taiwan,121.5167,25.0333,[121.0167 24.5333 122.0167 25.5333],5.745,2.648,8.111,6.11,4.202,2.619,5.978,4.885,46.0,556.0
2015-03-09,Taipei,Taiwan,121.5167,25.0333,[121.0167 24.5333 122.0167 25.5333],5.777,2.897,8.548,6.381,4.339,2.669,6.214,5.04,48.0,539.0
2015-03-10,Taipei,Taiwan,121.5167,25.0333,[121.0167 24.5333 122.0167 25.5333],5.777,2.897,8.548,6.381,4.312,2.691,6.146,5.015,48.0,552.0
2015-03-11,Taipei,Taiwan,121.5167,25.0333,[121.0167 24.5333 122.0167 25.5333],4.468,2.994,6.313,4.916,4.303,2.87,6.052,5.078,79.0,536.0
2015-03-12,Taipei,Taiwan,121.5167,25.0333,[121.0167 24.5333 122.0167 25.5333],4.468,2.994,6.313,4.916,4.72,3.071,6.531,5.306,79.0,555.0
2015-03-13,Taipei,Taiwan,121.5167,25.0333,[121.0167 24.5333 122.0167 25.5333],4.179,2.936,5.777,4.772,4.556,3.044,6.499,5.222,95.0,546.0
2015-03-14,Taipei,Taiwan,121.5167,25.0333,[121.0167 24.5333 122.0167 25.5333],4.179,2.936,5.777,4.775,4.519,3.054,6.499,5.221,96.0,558.0
2015-03-15,Taipei,Taiwan,121.5167,25.0333,[121.0167 24.5333 122.0167 25.5333],4.179,2.936,5.777,4.775,4.456,3.023,6.605,5.235,96.0,528.0
2015-03-16,Taipei,Taiwan,121.5167,25.0333,[121.0167 24.5333 122.0167 25.5333],4.179,2.936,5.777,4.775,4.511,3.1,6.642,5.281,96.0,519.0
2015-03-17,Taipei,Taiwan,121.5167,25.0333,[121.0167 24.5333 122.0167 25.5333],4.28,2.994,5.928,4.812,4.558,3.105,6.696,5.281,92.0,532.0
2015-03-18,Taipei,Taiwan,121.5167,25.0333,[121.0167 24.5333 122.0167 25.5333],4.28,2.994,5.928,4.812,4.903,3.368,7.435,5.661,92.0,507.0
2015-03-19,Taipei,Taiwan,121.5167,25.0333,[121.0167 24.5333 122.0167 25.5333],4.28,2.994,5.928,4.812,4.918,3.439,7.165,5.644,92.0,514.0
2015-03-20,Taipei,Taiwan,121.5167,25.0333,[121.0167 24.5333 122.0167 25.5333],4.28,2.994,5.777,4.806,4.869,3.515,7.006,5.591,93.0,511.0
2015-03-21,Taipei,Taiwan,121.5167,25.0333,[121.0167 24.5333 122.0167 25.5333],3.944,2.859,5.567,4.448,4.635,3.518,6.763,5.243,102.0,532.0
2015-03-22,Taipei,Taiwan,121.5167,25.0333,[121.0167 24.5333 122.0167 25.5333],3.447,2.584,5.13,4.072,4.368,3.298,6.584,5.02,96.0,524.0
2015-03-23,Taipei,Taiwan,121.5167,25.0333,[121.0167 24.5333 122.0167 25.5333],3.447,2.537,5.13,4.118,4.661,3.427,6.778,5.204,108.0,526.0
2015-03-24,Taipei,Taiwan,121.5167,25.0333,[121.0167 24.5333 122.0167 25.5333],3.487,2.584,5.176,4.153,4.662,3.446,6.787,5.257,120.0,531.0
2015-03-25,Taipei,Taiwan,121.5167,25.0333,[121.0167 24.5333 122.0167 25.5333],3.677,2.639,5.225,4.183,4.584,3.233,6.716,5.124,136.0,513.0
2015-03-26,Taipei,Taiwan,121.5167,25.0333,[121.0167 24.5333 122.0167 25.5333],3.833,2.537,5.928,4.347,4.568,3.235,6.86,5.147,105.0,526.0
2015-03-27,Taipei,Taiwan,121.5167,25.0333,[121.0167 24.5333 122.0167 25.5333],3.67,2.662,4.863,4.068,4.344,3.117,6.01,4.836,136.0,509.0
2015-03-28,Taipei,Taiwan,121.5167,25.0333,[121.0167 24.5333 122.0167 25.5333],3.624,2.662,4.971,4.103,4.199,3.003,5.782,4.694,120.0,530.0
2015-03-29,Taipei,Taiwan,121.5167,25.0333,[121.0167 24.5333 122.0167 25.5333],3.567,2.537,4.612,3.84,4.14,2.84,5.597,4.53,144.0,518.0
2015-03-30,Taipei,Taiwan,121.5167,25.0333,[121.0167 24.5333 122.0167 25.5333],3.502,2.511,4.52,3.747,4.122,2.827,5.448,4.475,167.0,559.0
2015-03-31,Taipei,Taiwan,121.5167,25.0333,[121.0167 24.5333 122.0167 25.5333],3.502,2.511,4.52,3.747,3.984,2.873,5.272,4.37,167.0,557.0
2015-04-01,Taipei,Taiwan,121.5167,25.0333,[121.0167 24.5333 122.0167 25.5333],3.502,2.511,4.52,3.747,3.879,2.817,5.25,4.295,167.0,547.0
2015-04-02,Taipei,Taiwan,121.5167,25.0333,[121.0167 24.5333 122.0167 25.5333],3.502,2.511,4.52,3.747,3.995,2.955,5.488,4.427,167.0,559.0
2015-04-03,Taipei,Taiwan,121.5167,25.0333,[121.0167 24.5333 122.0167 25.5333],3.502,2.511,4.52,3.747,3.941,2.943,5.447,4.385,167.0,535.0
2015-04-04,Taipei,Taiwan,121.5167,25.0333,[121.0167 24.5333 122.0167 25.5333],3.502,2.511,4.52,3.749,3.848,2.867,5.25,4.294,166.0,543.0
2015-04-05,Taipei,Taiwan,121.5167,25.0333,[121.0167 24.5333 122.0167 25.5333],3.523,2.579,4.46,3.79,3.861,2.893,5.277,4.267,138.0,539.0
2015-04-06,Taipei,Taiwan,121.5167,25.0333,[121.0167 24.5333 122.0167 25.5333],3.419,2.342,4.331,3.558,3.843,2.901,5.304,4.256,146.0,559.0
2015-04-07,Taipei,Taiwan,121.5167,25.0333,[121.0167 24.5333 122.0167 25.5333],3.624,2.662,4.308,3.589,3.761,2.883,4.999,4.103,152.0,547.0
2015-04-08,Taipei,Taiwan,121.5167,25.0333,[121.0167 24.5333 122.0167 25.5333],3.624,2.662,4.46,3.742,3.72,2.858,4.988,4.053,162.0,550.0
2015-04-09,Taipei,Taiwan,121.5167,25.0333,[121.0167 24.5333 122.0167 25.5333],3.67,2.662,4.52,3.841,3.761,2.919,5.05,4.117,171.0,556.0
2015-04-10,Taipei,Taiwan,121.5167,25.0333,[121.0167 24.5333 122.0167 25.5333],3.67,2.662,4.52,3.826,3.731,2.841,4.983,4.041,172.0,539.0
2015-04-11,Taipei,Taiwan,121.5167,25.0333,[121.0167 24.5333 122.0167 25.5333],3.741,1.864,5.12,3.903,3.789,2.709,5.224,4.118,141.0,553.0
2015-04-12,Taipei,Taiwan,121.5167,25.0333,[121.0167 24.5333 122.0167 25.5333],3.741,1.864,5.12,3.903,3.803,2.708,5.234,4.117,141.0,534.0
2015-04-13,Taipei,Taiwan,121.5167,25.0333,[121.0167 24.5333 122.0167 25.5333],4.072,2.579,6.002,4.347,3.901,2.895,5.253,4.181,116.0,553.0
2015-04-14,Taipei,Taiwan,121.5167,25.0333,[121.0167 24.5333 122.0167 25.5333],4.175,2.945,6.129,4.669,3.908,2.921,5.276,4.193,93.0,543.0
2015-04-15,Taipei,Taiwan,121.5167,25.0333,[121.0167 24.5333 122.0167 25.5333],4.072,2.613,6.022,4.442,3.933,2.707,5.327,4.136,103.0,556.0
2015-04-16,Taipei,Taiwan,121.5167,25.0333,[121.0167 24.5333 122.0167 25.5333],4.072,2.613,6.022,4.442,3.658,2.448,5.181,3.897,103.0,527.0
2015-04-17,Taipei,Taiwan,121.5167,25.0333,[121.0167 24.5333 122.0167 25.5333],4.072,2.613,6.022,4.442,3.357,2.138,4.447,3.533,103.0,489.0
2015-04-18,Taipei,Taiwan,121.5167,25.0333,[121.0167 24.5333 122.0167 25.5333],4.164,2.736,6.022,4.481,3.391,2.188,4.583,3.494,107.0,504.0
2015-04-19,Taipei,Taiwan,121.5167,25.0333,[121.0167 24.5333 122.0167 25.5333],3.782,1.929,5.799,4.149,3.277,1.947,4.585,3.385,112.0,481.0
2015-04-20,Taipei,Taiwan,121.5167,25.0333,[121.0167 24.5333 122.0167 25.5333],3.782,1.929,5.799,4.149,3.288,1.998,4.586,3.402,112.0,490.0
2015-04-21,Taipei,Taiwan,121.5167,25.0333,[121.0167 24.5333 122.0167 25.5333],4.08,2.13,6.002,4.476,3.186,2.023,4.51,3.379,87.0,487.0
2015-04-22,Taipei,Taiwan,121.5167,25.0333,[121.0167 24.5333 122.0167 25.5333],3.289,1.355,6.147,4.125,2.934,1.88,4.328,3.236,86.0,507.0
2015-04-23,Taipei,Taiwan,121.5167,25.0333,[121.0167 24.5333 122.0167 25.5333],2.464,1.355,4.904,3.353,2.775,1.848,4.068,3.067,72.0,490.0
2015-04-24,Taipei,Taiwan,121.5167,25.0333,[121.0167 24.5333 122.0167 25.5333],1.97,1.201,3.304,2.426,2.759,1.887,3.76,2.937,47.0,492.0
2015-04-25,Taipei,Taiwan,121.5167,25.0333,[121.0167 24.5333 122.0167 25.5333],1.97,1.214,3.304,2.411,2.766,1.996,3.965,2.972,54.0,502.0
2015-04-26,Taipei,Taiwan,121.5167,25.0333,[121.0167 24.5333 122.0167 25.5333],1.929,1.214,2.611,2.277,2.674,1.754,3.646,2.773,63.0,486.0
2015-04-27,Taipei,Taiwan,121.5167,25.0333,[121.0167 24.5333 122.0167 25.5333],1.929,1.214,2.611,2.277,2.699,1.673,3.637,2.741,63.0,500.0
2015-04-28,Taipei,Taiwan,121.5167,25.0333,[121.0167 24.5333 122.0167 25.5333],1.929,1.214,2.611,2.277,2.655,1.683,3.639,2.742,63.0,484.0
2015-04-29,Taipei,Taiwan,121.5167,25.0333,[121.0167 24.5333 122.0167 25.5333],1.929,1.214,2.611,2.277,2.669,1.731,3.526,2.721,63.0,503.0
2015-04-30,Taipei,Taiwan,121.5167,25.0333,[121.0167 24.5333 122.0167 25.5333],1.988,1.249,3.304,2.381,2.684,1.737,3.612,2.738,61.0,493.0
2015-05-01,Taipei,Taiwan,121.5167,25.0333,[121.0167 24.5333 122.0167 25.5333],2.012,1.249,3.304,2.402,2.646,1.8,3.719,2.785,68.0,535.0
2015-05-02,Taipei,Taiwan,121.5167,25.0333,[121.0167 24.5333 122.0167 25.5333],2.012,1.249,3.304,2.402,2.641,1.814,3.668,2.77,68.0,565.0
2015-05-03,Taipei,Taiwan,121.5167,25.0333,[121.0167 24.5333 122.0167 25.5333],1.988,1.249,2.942,2.229,2.405,1.667,3.383,2.615,65.0,555.0
2015-05-04,Taipei,Taiwan,121.5167,25.0333,[121.0167 24.5333 122.0167 25.5333],2.02,1.393,3.304,2.402,2.409,1.708,3.428,2.638,60.0,570.0
2015-05-05,Taipei,Taiwan,121.5167,25.0333,[121.0167 24.5333 122.0167 25.5333],2.115,1.393,3.246,2.364,2.346,1.678,3.387,2.583,69.0,547.0
2015-05-06,Taipei,Taiwan,121.5167,25.0333,[121.0167 24.5333 122.0167 25.5333],2.115,1.393,3.246,2.364,2.388,1.712,3.381,2.591,69.0,554.0
2015-05-07,Taipei,Taiwan,121.5167,25.0333,[121.0167 24.5333 122.0167 25.5333],2.464,1.617,3.304,2.629,2.417,1.747,3.374,2.552,56.0,545.0
2015-05-08,Taipei,Taiwan,121.5167,25.0333,[121.0167 24.5333 122.0167 25.5333],2.177,1.57,2.836,2.368,2.328,1.733,3.266,2.497,75.0,572.0
2015-05-09,Taipei,Taiwan,121.5167,25.0333,[121.0167 24.5333 122.0167 25.5333],2.496,1.617,3.273,2.595,2.353,1.708,3.284,2.515,88.0,554.0
2015-05-10,Taipei,Taiwan,121.5167,25.0333,[121.0167 24.5333 122.0167 25.5333],2.482,1.589,3.266,2.567,2.325,1.692,3.147,2.479,94.0,549.0
2015-05-11,Taipei,Taiwan,121.5167,25.0333,[121.0167 24.5333 122.0167 25.5333],2.685,1.629,3.446,2.77,2.455,1.826,3.304,2.638,108.0,554.0
2015-05-12,Taipei,Taiwan,121.5167,25.0333,[121.0167 24.5333 122.0167 25.5333],2.685,1.629,3.446,2.77,2.501,1.854,3.337,2.654,108.0,539.0
2015-05-13,Taipei,Taiwan,121.5167,25.0333,[121.0167 24.5333 122.0167 25.5333],2.685,1.629,3.446,2.77,2.507,1.788,3.341,2.644,108.0,552.0
2015-05-14,Taipei,Taiwan,121.5167,25.0333,[121.0167 24.5333 122.0167 25.5333],2.685,1.629,3.446,2.77,2.541,1.77,3.386,2.666,108.0,535.0
2015-05-15,Taipei,Taiwan,121.5167,25.0333,[121.0167 24.5333 122.0167 25.5333],2.685,1.704,3.517,2.8,2.507,1.773,3.308,2.61,100.0,555.0
2015-05-16,Taipei,Taiwan,121.5167,25.0333,[121.0167 24.5333 122.0167 25.5333],2.685,1.689,3.517,2.81,2.432,1.741,3.247,2.572,93.0,544.0
2015-05-17,Taipei,Taiwan,121.5167,25.0333,[121.0167 24.5333 122.0167 25.5333],2.685,1.689,3.517,2.81,2.435,1.743,3.237,2.583,93.0,555.0
2015-05-18,Taipei,Taiwan,121.5167,25.0333,[121.0167 24.5333 122.0167 25.5333],2.685,1.725,3.517,2.826,2.416,1.713,3.217,2.577,92.0,524.0
2015-05-19,Taipei,Taiwan,121.5167,25.0333,[121.0167 24.5333 122.0167 25.5333],2.685,1.725,3.517,2.826,2.413,1.687,3.225,2.551,92.0,513.0
2015-05-20,Taipei,Taiwan,121.5167,25.0333,[121.0167 24.5333 122.0167 25.5333],2.805,1.847,3.695,2.92,2.423,1.695,3.281,2.57,83.0,528.0
2015-05-21,Taipei,Taiwan,121.5167,25.0333,[121.0167 24.5333 122.0167 25.5333],3.036,2.018,3.9,3.053,2.534,1.726,3.296,2.597,101.0,504.0
2015-05-22,Taipei,Taiwan,121.5167,25.0333,[121.0167 24.5333 122.0167 25.5333],3.049,2.018,3.9,3.063,2.52,1.779,3.481,2.626,97.0,516.0
2015-05-23,Taipei,Taiwan,121.5167,25.0333,[121.0167 24.5333 122.0167 25.5333],3.049,2.18,3.776,3.024,2.535,1.794,3.356,2.616,75.0,509.0
2015-05-24,Taipei,Taiwan,121.5167,25.0333,[121.0167 24.5333 122.0167 25.5333],2.852,2.018,3.776,2.932,2.482,1.768,3.358,2.578,71.0,538.0
2015-05-25,Taipei,Taiwan,121.5167,25.0333,[121.0167 24.5333 122.0167 25.5333],3.021,2.18,3.951,3.068,2.484,1.778,3.358,2.586,57.0,524.0
2015-05-26,Taipei,Taiwan,121.5167,25.0333,[121.0167 24.5333 122.0167 25.5333],3.256,2.446,4.015,3.3,2.443,1.813,3.21,2.555,58.0,524.0
2015-05-27,Taipei,Taiwan,121.5167,25.0333,[121.0167 24.5333 122.0167 25.5333],3.256,2.422,4.272,3.298,2.461,1.832,3.269,2.568,74.0,529.0
2015-05-28,Taipei,Taiwan,121.5167,25.0333,[121.0167 24.5333 122.0167 25.5333],3.256,2.422,4.272,3.298,2.45,1.814,3.254,2.549,74.0,514.0
2015-05-29,Taipei,Taiwan,121.5167,25.0333,[121.0167 24.5333 122.0167 25.5333],3.256,2.422,4.272,3.298,2.436,1.853,3.202,2.533,74.0,528.0
2015-05-30,Taipei,Taiwan,121.5167,25.0333,[121.0167 24.5333 122.0167 25.5333],3.256,2.422,4.272,3.298,2.455,1.871,3.291,2.609,74.0,512.0
2015-05-31,Taipei,Taiwan,121.5167,25.0333,[121.0167 24.5333 122.0167 25.5333],3.256,2.422,4.272,3.298,2.452,1.832,3.316,2.592,74.0,532.0
2015-06-01,Taipei,Taiwan,121.5167,25.0333,[121.0167 24.5333 122.0167 25.5333],3.021,2.18,3.789,3.07,2.432,1.796,3.25,2.58,98.0,523.0
2015-06-02,Taipei,Taiwan,121.5167,25.0333,[121.0167 24.5333 122.0167 25.5333],2.892,2.018,3.731,2.917,2.448,1.711,3.234,2.545,128.0,565.0
2015-06-03,Taipei,Taiwan,121.5167,25.0333,[121.0167 24.5333 122.0167 25.5333],2.913,2.018,3.731,2.906,2.491,1.735,3.292,2.581,139.0,563.0
2015-06-04,Taipei,Taiwan,121.5167,25.0333,[121.0167 24.5333 122.0167 25.5333],2.913,2.018,3.778,2.978,2.478,1.747,3.288,2.599,161.0,551.0
2015-06-05,Taipei,Taiwan,121.5167,25.0333,[121.0167 24.5333 122.0167 25.5333],2.907,1.965,3.731,2.944,2.412,1.713,3.225,2.547,152.0,567.0
2015-06-06,Taipei,Taiwan,121.5167,25.0333,[121.0167 24.5333 122.0167 25.5333],2.855,1.869,3.585,2.841,2.403,1.677,3.194,2.505,166.0,543.0
2015-06-07,Taipei,Taiwan,121.5167,25.0333,[121.0167 24.5333 122.0167 25.5333],2.883,1.8,3.708,2.858,2.422,1.65,3.235,2.521,159.0,554.0
2015-06-08,Taipei,Taiwan,121.5167,25.0333,[121.0167 24.5333 122.0167 25.5333],2.608,1.72,3.396,2.735,2.364,1.626,3.149,2.514,172.0,551.0
2015-06-09,Taipei,Taiwan,121.5167,25.0333,[121.0167 24.5333 122.0167 25.5333],2.608,1.778,3.416,2.741,2.422,1.718,3.233,2.584,200.0,576.0
2015-06-10,Taipei,Taiwan,121.5167,25.0333,[121.0167 24.5333 122.0167 25.5333],2.577,1.782,3.396,2.688,2.399,1.71,3.219,2.553,192.0,562.0
2015-06-11,Taipei,Taiwan,121.5167,25.0333,[121.0167 24.5333 122.0167 25.5333],2.521,1.782,3.224,2.646,2.403,1.726,3.213,2.559,183.0,559.0
2015-06-12,Taipei,Taiwan,121.5167,25.0333,[121.0167 24.5333 122.0167 25.5333],2.54,1.782,3.23,2.661,2.426,1.733,3.227,2.563,187.0,564.0
2015-06-13,Taipei,Taiwan,121.5167,25.0333,[121.0167 24.5333 122.0167 25.5333],2.54,1.782,3.23,2.654,2.439,1.715,3.193,2.543,195.0,547.0
2015-06-14,Taipei,Taiwan,121.5167,25.0333,[121.0167 24.5333 122.0167 25.5333],2.54,1.782,3.23,2.654,2.472,1.689,3.216,2.554,195.0,558.0
2015-06-15,Taipei,Taiwan,121.5167,25.0333,[121.0167 24.5333 122.0167 25.5333],2.577,1.778,3.489,2.674,2.521,1.718,3.38,2.604,214.0,542.0
2015-06-16,Taipei,Taiwan,121.5167,25.0333,[121.0167 24.5333 122.0167 25.5333],2.608,1.668,3.673,2.693,2.533,1.715,3.478,2.63,190.0,561.0
2015-06-17,Taipei,Taiwan,121.5167,25.0333,[121.0167 24.5333 122.0167 25.5333],2.521,1.668,3.579,2.638,2.535,1.767,3.456,2.635,177.0,550.0
2015-06-18,Taipei,Taiwan,121.5167,25.0333,[121.0167 24.5333 122.0167 25.5333],2.513,1.668,3.579,2.613,2.588,1.846,3.537,2.663,188.0,563.0
2015-06-19,Taipei,Taiwan,121.5167,25.0333,[121.0167 24.5333 122.0167 25.5333],2.383,1.639,3.486,2.505,2.569,1.825,3.589,2.671,166.0,534.0
2015-06-20,Taipei,Taiwan,121.5167,25.0333,[121.0167 24.5333 122.0167 25.5333],2.362,1.604,3.486,2.484,2.58,1.794,3.519,2.646,174.0,523.0
2015-06-21,Taipei,Taiwan,121.5167,25.0333,[121.0167 24.5333 122.0167 25.5333],2.362,1.639,3.579,2.523,2.54,1.745,3.559,2.638,174.0,539.0